[[{"header":{"parameterUnit":"m.s-1","parameterCategory":1,"la1":30.2991,"la2":30.254,"lo1":-89.0895,"lo2":-89.0444,"dy":0.0017,"dx":0.0017,"nx":28,"ny":28,"refTime":"2025-02-01T03:00:00:Z","depth":0,"parameterNumber":2,"parameterNumberName":"U-component_of_WINDS"},"data":[0,0,0,0,0,0,0,0,0,0,0,0,0,0,0,0,0,0,0,0,0,0,0,0,0,0,0,0,0,0,0,0,0,0,0,0,0,0,0,0,0,0,0,0,0,0,0,0,0,0,0,0,0,0,0,0,0,0,-0.0707,-0.0707,0,-0.0651,-0.065,-0.065,-0.0658,-0.0659,-0.066,-0.0661,-0.0603,-0.0601,-0.0599,0,0,0,0,0,0,0,0,0,0,0,0,0,-0.0824,-0.0821,-0.0708,-0.0707,-0.0706,-0.0651,-0.065,-0.0649,-0.0658,-0.0659,-0.066,-0.0661,-0.0604,-0.0601,-0.0599,0,0,0,0,0,0,0,0,0,0,0,0,0,-0.0771,-0.0821,-0.0708,-0.0703,-0.0703,-0.0651,-0.065,-0.0649,-0.0657,-0.0659,-0.066,-0.0662,-0.0605,-0.0602,-0.0598,-0.0548,0,0,-0.0587,-0.0586,0,0,0,0,0,0,0,0,-0.0774,-0.0767,-0.0705,-0.0704,-0.0703,-0.0663,-0.067,-0.0615,-0.0657,-0.0675,-0.0661,-0.0662,-0.0622,-0.0617,-0.0604,-0.0545,-0.0542,-0.0587,-0.0585,-0.0583,-0.0582,0,0,0,0,0,0,0,-0.0777,-0.0769,-0.0685,-0.0704,-0.0702,-0.0705,-0.0699,-0.066,-0.0641,-0.0673,-0.0674,-0.0667,-0.0622,-0.0607,-0.0602,-0.0542,-0.0587,-0.0584,-0.0581,-0.058,-0.0439,-0.0438,0,0,0,0,0,0,-0.0782,-0.0772,-0.0687,-0.0683,-0.0742,-0.0702,-0.0695,-0.0674,-0.0642,-0.0638,-0.0666,-0.0667,-0.0612,-0.0606,-0.06,-0.0539,-0.0583,-0.058,-0.0578,-0.0441,-0.0439,-0.0437,0,0,0,0,0,0,-0.0785,-0.0774,-0.0689,-0.0728,-0.0717,-0.0698,-0.0675,-0.0672,-0.0657,-0.0636,-0.0633,-0.0654,-0.0613,-0.0605,-0.0561,-0.0537,-0.0578,-0.0575,-0.0443,-0.044,-0.0438,-0.0417,0,0,0,0,0,0,-0.0788,-0.0775,-0.0755,-0.0727,-0.0715,-0.065,-0.0673,-0.067,-0.0651,-0.0653,-0.0624,-0.062,-0.0614,-0.0566,-0.0557,-0.0533,-0.0572,-0.0445,-0.0442,-0.0439,-0.0419,-0.0414,-0.0409,0,0,0,0,0,-0.0792,-0.0752,-0.0754,-0.0744,-0.069,-0.0649,-0.0642,-0.0635,-0.0649,-0.0629,-0.0616,-0.0621,-0.0541,-0.0561,-0.0551,-0.0526,-0.0446,-0.0443,-0.0439,-0.0422,-0.0415,-0.0409,0,0,0,0,0,0,-0.0777,-0.0748,-0.0751,-0.07,-0.0677,-0.065,-0.0625,-0.0628,-0.06,-0.0603,-0.0596,-0.0589,-0.0544,-0.0531,-0.0553,-0.0476,-0.0496,-0.049,-0.0486,-0.0479,-0.0474,-0.0478,-0.0569,0,0,0,0,0,-0.0768,-0.0737,-0.0713,-0.0671,-0.0659,-0.0644,-0.0626,-0.0622,-0.0598,-0.0588,-0.0571,-0.0548,-0.0518,-0.0498,-0.0469,-0.0418,-0.0412,-0.0395,-0.039,-0.0386,-0.0381,-0.0354,-0.0346,-0.0426,-0.0426,-0.0426,0,0,-0.0749,-0.0729,-0.071,-0.0667,-0.0649,-0.0617,-0.0636,-0.0601,-0.0577,-0.0583,-0.054,-0.0527,-0.05,-0.0452,-0.043,-0.044,-0.0358,-0.0382,-0.0378,-0.0376,-0.035,-0.0342,-0.0335,-0.0423,-0.0424,-0.0424,0,0,-0.0698,-0.068,-0.0642,-0.0624,-0.0596,-0.0586,-0.0577,-0.0551,-0.0542,-0.0498,-0.0502,-0.0475,-0.0422,-0.0404,-0.0387,-0.033,-0.0334,-0.0321,-0.0294,-0.0267,-0.0261,-0.0255,-0.0236,-0.0228,-0.0316,-0.0316,-0.0316,0,-0.0678,-0.063,-0.0623,-0.0588,-0.0569,-0.0573,-0.0536,-0.0518,-0.0482,-0.047,-0.0481,-0.0416,-0.0398,-0.0346,-0.0333,-0.0319,-0.0309,-0.0324,-0.0262,-0.0257,-0.0252,-0.0232,-0.0225,-0.0314,-0.0315,-0.0315,-0.0315,0,-0.0606,-0.0573,-0.0546,-0.0512,-0.049,-0.0454,-0.0443,-0.0422,-0.042,-0.041,-0.0366,-0.0345,-0.0312,-0.03,-0.0298,-0.0248,-0.0255,-0.0264,-0.0284,-0.0243,-0.0225,-0.0217,-0.0312,-0.0313,-0.0313,-0.0314,0,0,-0.0544,-0.0506,-0.0497,-0.0481,-0.0451,-0.0425,-0.039,-0.0358,-0.034,-0.0316,-0.0286,-0.0242,-0.0251,-0.0233,-0.0229,-0.0206,-0.0162,-0.0218,-0.0218,-0.0209,-0.0106,-0.0099,-0.0091,-0.0165,-0.0164,-0.0163,-0.0109,0,-0.049,-0.0427,-0.042,-0.0364,-0.0334,-0.0337,-0.0307,-0.0285,-0.0275,-0.0248,-0.0236,-0.0206,-0.0219,-0.0208,-0.0185,-0.0172,-0.0142,-0.0176,-0.0138,-0.0137,-0.0145,-0.0081,-0.0074,-0.0024,-0.0102,-0.01,-0.0099,0,-0.0418,-0.0392,-0.0333,-0.0307,-0.0294,-0.0267,-0.0237,-0.0211,-0.0187,-0.0181,-0.0161,-0.0161,-0.0125,-0.0147,-0.0098,-0.0121,-0.0106,-0.0097,-0.0095,-0.0091,-0.0116,-0.0076,-0.0007,-0.0,-0.0088,-0.0089,-0.009,0,-0.0379,-0.0328,-0.0287,-0.0273,-0.0243,-0.0223,-0.021,-0.0187,-0.0169,-0.0143,-0.0131,-0.0101,-0.0085,-0.0063,-0.0055,-0.0071,-0.0006,-0.0027,-0.0001,-0.0001,0.0013,0.0012,0.0085,0.0023,0.0023,0.0023,0.0023,0,-0.0319,-0.0283,-0.0269,-0.0243,-0.0203,-0.0196,-0.0156,-0.0144,-0.0124,-0.0097,-0.0098,-0.0072,-0.0064,-0.0036,-0.003,0.0009,0.0016,0.0022,0.0023,0.0022,0.0021,0.0032,0.0029,0.0025,0.0025,0.0024,0.0024,0,-0.0269,-0.0257,-0.0212,-0.0187,-0.018,-0.0152,-0.013,-0.0106,-0.0096,-0.0061,-0.0053,-0.0038,-0.0006,0.0004,0.0042,0.0046,0.0092,0.009,0.0084,0.0084,0.011,0.0107,0.0192,0.0203,0.0135,0.0136,0.0136,0,-0.0231,-0.0204,-0.0176,-0.0157,-0.0143,-0.0113,-0.0094,-0.0087,-0.0067,-0.0038,-0.0017,0.0014,0.0039,0.009,0.0104,0.0133,0.0132,0.016,0.0136,0.0134,0.0132,0.013,0.0132,0.0164,0.0165,0.0165,0.0166,0,-0.0167,-0.0163,-0.0135,-0.0105,-0.0083,-0.0059,-0.0036,-0.0021,-0.0011,0.0011,0.0044,0.0064,0.0102,0.0133,0.0162,0.0176,0.0172,0.0173,0.0181,0.018,0.0175,0.0177,0.0096,0.0171,0.0171,0.017,0.017,0.017,-0.0121,-0.0097,-0.0074,-0.0044,-0.0026,-0.0005,0.0019,0.0032,0.0059,0.0091,0.0094,0.0129,0.0151,0.019,0.0204,0.0231,0.0223,0.0234,0.0237,0.024,0.0241,0.0171,0.0237,0.0237,0.0236,0.0236,0.0236,0,-0.0057,-0.0043,-0.0015,0.0017,0.0041,0.0036,0.006,0.0081,0.0111,0.0132,0.0157,0.0194,0.0224,0.024,0.0269,0.0288,0.0287,0.0295,0.0294,0.0296,0.0247,0.0238,0.0295,0.0295,0.0295,0.0295,0.0295,0.0295,-0.0021,0.0019,0.0026,0.0075,0.0089,0.0123,0.0138,0.0157,0.0174,0.0215,0.0239,0.025,0.0269,0.0299,0.0326,0.033,0.034,0.035,0.0352,0.0306,0.03,0.0294,0.0285,0.0352,0.0352,0.0399,0.04,0.04]},{"header":{"parameterUnit":"m.s-1","parameterCategory":1,"la1":30.2991,"la2":30.254,"lo1":-89.0895,"lo2":-89.0444,"dy":0.0017,"dx":0.0017,"nx":28,"ny":28,"refTime":"2025-02-01T03:00:00:Z","depth":0,"parameterNumber":3,"parameterNumberName":"V-component_of_WINDS"},"data":[0,0,0,0,0,0,0,0,0,0,0,0,0,0,0,0,0,0,0,0,0,0,0,0,0,0,0,0,0,0,0,0,0,0,0,0,0,0,0,0,0,0,0,0,0,0,0,0,0,0,0,0,0,0,0,0,0,0,0.1687,0.1687,0,0.1681,0.1681,0.1681,0.1711,0.1712,0.1713,0.1714,0.1706,0.1705,0.1704,0,0,0,0,0,0,0,0,0,0,0,0,0,0.1723,0.1722,0.1687,0.1687,0.1687,0.1681,0.1681,0.1681,0.1711,0.1712,0.1713,0.1714,0.1707,0.1705,0.1704,0,0,0,0,0,0,0,0,0,0,0,0,0,0.1711,0.1722,0.1687,0.1701,0.1703,0.1681,0.1681,0.1681,0.1711,0.1712,0.1713,0.1715,0.1707,0.1706,0.1704,0.1669,0,0,0.1699,0.1699,0,0,0,0,0,0,0,0,0.1712,0.171,0.1699,0.17,0.1702,0.1698,0.1691,0.1677,0.171,0.1708,0.1714,0.1715,0.1702,0.1701,0.1697,0.1668,0.1668,0.1699,0.1698,0.1698,0.1697,0,0,0,0,0,0,0,0.1712,0.171,0.1685,0.1699,0.1701,0.1707,0.1707,0.1688,0.1698,0.1708,0.171,0.1709,0.1703,0.1699,0.1697,0.1668,0.1699,0.1698,0.1697,0.1697,0.1606,0.1604,0,0,0,0,0,0,0.1711,0.171,0.1685,0.1685,0.171,0.1705,0.1705,0.1698,0.1698,0.1699,0.1708,0.171,0.1701,0.1699,0.1697,0.1653,0.1698,0.1696,0.1695,0.1607,0.1605,0.1604,0,0,0,0,0,0,0.1712,0.1709,0.1685,0.1698,0.1696,0.1704,0.1695,0.1697,0.1693,0.1698,0.17,0.1702,0.1702,0.1699,0.1675,0.1653,0.1696,0.1694,0.1609,0.1607,0.1604,0.1566,0,0,0,0,0,0,0.1713,0.1709,0.1696,0.1698,0.1695,0.1663,0.1694,0.1696,0.169,0.1693,0.1693,0.1694,0.1703,0.1677,0.1673,0.1652,0.1693,0.1611,0.1608,0.1605,0.1569,0.1563,0.1557,0,0,0,0,0,0.1714,0.1686,0.1695,0.1692,0.1679,0.1662,0.1661,0.1672,0.1688,0.1675,0.1678,0.1694,0.1657,0.1674,0.167,0.1648,0.1612,0.1609,0.1605,0.1572,0.1564,0.1557,0,0,0,0,0,0,0.1682,0.1687,0.1697,0.1669,0.1665,0.1667,0.1651,0.1663,0.1655,0.1658,0.1672,0.1671,0.1643,0.1644,0.1663,0.1612,0.1637,0.1633,0.1613,0.1605,0.1599,0.1599,0.1692,0,0,0,0,0,0.1672,0.1658,0.1663,0.1637,0.1635,0.1643,0.1636,0.1645,0.1641,0.164,0.1641,0.1637,0.1624,0.1615,0.1604,0.157,0.1568,0.1553,0.1547,0.1542,0.1537,0.1516,0.1508,0.1593,0.1593,0.1593,0,0,0.1651,0.1651,0.1642,0.1631,0.1629,0.1613,0.1642,0.1625,0.1613,0.1637,0.1613,0.1614,0.161,0.1579,0.1566,0.1579,0.1513,0.1537,0.1533,0.1531,0.1512,0.1504,0.1496,0.159,0.1591,0.1591,0,0,0.1603,0.1603,0.158,0.1577,0.1574,0.1579,0.1574,0.1574,0.1575,0.1551,0.1568,0.1554,0.1533,0.1528,0.1523,0.1471,0.1484,0.1467,0.1434,0.1414,0.1407,0.1401,0.138,0.1372,0.1463,0.1463,0.1463,0,0.1576,0.1554,0.1567,0.1548,0.1542,0.1563,0.1539,0.1536,0.1528,0.1523,0.1537,0.1508,0.1507,0.1475,0.1462,0.1458,0.145,0.1466,0.1407,0.1401,0.1396,0.1376,0.1368,0.146,0.1461,0.1461,0.1461,0,0.152,0.1504,0.1486,0.1478,0.147,0.1449,0.1457,0.1447,0.1456,0.1459,0.1433,0.1433,0.142,0.1414,0.1423,0.1381,0.1389,0.1405,0.143,0.1385,0.1366,0.1359,0.1457,0.1458,0.1459,0.1459,0,0,0.1452,0.145,0.1443,0.1438,0.1435,0.1422,0.1401,0.1389,0.1378,0.1373,0.1353,0.1334,0.1348,0.1342,0.1351,0.1333,0.1288,0.1351,0.1351,0.1337,0.1238,0.1224,0.1215,0.1297,0.1296,0.1295,0.1238,0,0.1403,0.1367,0.1377,0.134,0.1324,0.1343,0.1324,0.1319,0.1322,0.1308,0.131,0.1295,0.1316,0.1312,0.1296,0.1297,0.1268,0.1301,0.1277,0.1276,0.1275,0.1206,0.1192,0.1138,0.1231,0.123,0.1229,0,0.1341,0.1332,0.1293,0.129,0.1283,0.1266,0.1254,0.1241,0.1235,0.1238,0.123,0.1242,0.1219,0.1245,0.1213,0.1235,0.1226,0.1225,0.1223,0.1219,0.1248,0.1198,0.1121,0.1112,0.1218,0.1219,0.122,0,0.1292,0.1269,0.1243,0.1238,0.1235,0.1222,0.122,0.1215,0.1206,0.1195,0.1189,0.1176,0.1169,0.1158,0.1165,0.1184,0.113,0.1158,0.1129,0.1129,0.1115,0.1116,0.1034,0.1114,0.1114,0.1114,0.1114,0,0.1235,0.1209,0.122,0.1203,0.1174,0.1186,0.1157,0.1158,0.1153,0.1135,0.1152,0.1135,0.1146,0.113,0.1135,0.1106,0.1103,0.1103,0.1104,0.11,0.1099,0.1092,0.1095,0.1112,0.1112,0.1113,0.1113,0,0.1174,0.118,0.1152,0.115,0.1149,0.1128,0.1126,0.111,0.1113,0.109,0.1085,0.109,0.1071,0.1077,0.1058,0.1061,0.1022,0.103,0.1024,0.1025,0.0995,0.0997,0.0904,0.0891,0.0982,0.0981,0.098,0,0.1136,0.1117,0.1113,0.1102,0.1098,0.1081,0.1072,0.1082,0.1071,0.1061,0.1045,0.1028,0.1014,0.0983,0.0984,0.0968,0.0973,0.0942,0.0971,0.0966,0.0969,0.0969,0.0966,0.0935,0.0934,0.0933,0.0933,0,0.1066,0.107,0.1056,0.1042,0.103,0.1019,0.101,0.1,0.101,0.0996,0.0977,0.0966,0.0945,0.0926,0.0912,0.0908,0.092,0.0924,0.0916,0.091,0.0906,0.0904,0.1005,0.0925,0.0926,0.0926,0.0927,0.0927,0.1014,0.0997,0.099,0.0973,0.0967,0.0958,0.0941,0.0942,0.0926,0.0909,0.0916,0.0893,0.0885,0.0866,0.0861,0.0842,0.0854,0.0843,0.084,0.0836,0.0831,0.0911,0.084,0.084,0.084,0.084,0.0841,0,0.0943,0.0939,0.0924,0.091,0.0895,0.0909,0.09,0.0886,0.0866,0.0858,0.0843,0.0819,0.0801,0.08,0.0782,0.0767,0.0772,0.0761,0.0761,0.076,0.0823,0.083,0.0757,0.0757,0.0757,0.0757,0.0757,0.0757,0.0904,0.0874,0.0877,0.0843,0.084,0.0817,0.081,0.0801,0.0794,0.0766,0.0751,0.0751,0.0744,0.0726,0.0709,0.0709,0.07,0.0687,0.0689,0.0747,0.0756,0.0763,0.077,0.0686,0.0686,0.0626,0.0626,0.0625]}]]